Overview Statistics Trail Chart Weather Telemetry Raw packets
 

This is the latest recevied weather packets stored in our database for station/object N5CSU. If no packets are shown the sender has not sent any weather packets the latest 10 day(s).

<< 11 12 13 14 15 16 17 >>
Time Temp. Humidity Pressure Rain* Wind** Luminosity Snow
1788542478 34.44° C 52% 1015 hPa 0 mm - 88 W/m² -
1788542173 34.44° C 53% 1014.9 hPa 0 mm - 270 W/m² -
1788541869 34.44° C 52% 1015.1 hPa 0 mm - 408 W/m² -
1788541564 34.44° C 55% 1015.1 hPa 0 mm - 158 W/m² -
1788541254 34.44° C 56% 1015 hPa 0 mm - 69 W/m² -
1788540952 33.89° C 56% 1015 hPa 0 mm - 149 W/m² -
1788540647 33.89° C 55% 1015.1 hPa 0 mm - 144 W/m² -
1788540342 34.44° C 57% 1014.9 hPa 0 mm - 141 W/m² -
1788540038 34.44° C 58% 1015.3 hPa 0 mm - 392 W/m² -
1788539737 33.89° C 58% 1015.3 hPa 0 mm - 386 W/m² -
1788539433 33.89° C 60% 1015.4 hPa 0 mm - 400 W/m² -
1788539127 33.89° C 60% 1015.2 hPa 0 mm - 425 W/m² -
1788538822 33.33° C 60% 1015 hPa 0 mm - 424 W/m² -
1788538517 33.33° C 60% 1015 hPa 0 mm - 415 W/m² -
1788538234 32.78° C 62% 1015 hPa 0 mm - 393 W/m² -
1788537908 32.78° C 63% 1015.1 hPa 0 mm - 335 W/m² -
1788537603 32.78° C 63% 1015.3 hPa 0 mm - 287 W/m² -
1788537302 32.22° C 66% 1015.3 hPa 0 mm - 384 W/m² -
1788537001 31.67° C 69% 1015.3 hPa 0 mm - 385 W/m² -
1788536696 31.11° C 69% 1015.3 hPa 0 mm - 366 W/m² -
1788536390 31.11° C 71% 1015 hPa 0 mm - 31 W/m² -
1788536085 30.56° C 72% 1015.2 hPa 0 mm - 25 W/m² -
1788535782 30.56° C 72% 1015.2 hPa 0 mm - 25 W/m² -
1788535477 30.56° C 73% 1015.2 hPa 0 mm - 21 W/m² -
1788535177 30° C 74% 1015.1 hPa 0 mm - 20 W/m² -

* Rain latest hour (hover to see other rain measurements)
** Current wind speed in m/s (hover to see current wind gust speed)